| time (UTC) | temp C | wind direction | speed KPH | gust KPH | rain 1hr cm | rain 24hr cm | rain mn cm | humidity % | barometer mb |
| 20260504110104 | 10 | 223 | 1.6 | 4.8 | 0.00 | 0.00 | 0.00 | 68 | 1008.0 |
| 20260504081926 | 10 | 231 | 0.0 | 3.2 | 0.00 | 0.00 | 0.00 | 69 | 1008.2 |
| 20260504081648 | 10 | 260 | 0.0 | 3.2 | 0.00 | 0.00 | 0.00 | 70 | 1008.1 |
| 20260504080922 | 10 | 223 | 0.0 | 4.8 | 0.00 | 0.00 | 0.00 | 70 | 1008.1 |
| 20260504080422 | 10 | 229 | 0.0 | 4.8 | 0.00 | 0.00 | 0.00 | 71 | 1008.1 |
| 20260504070408 | 9 | 259 | 0.0 | 3.2 | 0.00 | 0.00 | 0.00 | 73 | 1008.3 |
| 20260504050713 | 6 | 242 | 0.0 | 1.6 | 0.00 | 0.00 | 0.00 | 77 | 1008.5 |
| 20260504050208 | 6 | 152 | 0.0 | 0.0 | 0.00 | 0.00 | 0.00 | 76 | 1008.5 |
| 20260504045702 | 6 | 152 | 0.0 | 0.0 | 0.00 | 0.00 | 0.00 | 75 | 1008.4 |
| 20260504045156 | 6 | 152 | 0.0 | 0.0 | 0.00 | 0.00 | 0.00 | 75 | 1008.3 |
| 20260504044650 | 6 | 152 | 0.0 | 0.0 | 0.00 | 0.00 | 0.00 | 75 | 1008.4 |
| 20260504044144 | 6 | 152 | 0.0 | 0.0 | 0.00 | 0.00 | 0.00 | 74 | 1008.4 |
| 20260504043638 | 6 | 152 | 0.0 | 0.0 | 0.00 | 0.00 | 0.00 | 74 | 1008.4 |
| 20260504043132 | 6 | 152 | 0.0 | 0.0 | 0.00 | 0.00 | 0.00 | 73 | 1008.4 |
| 20260504042850 | 6 | 152 | 0.0 | 0.0 | 0.00 | 0.00 | 0.00 | 73 | 1008.4 |
| 20260504042120 | 6 | 153 | 0.0 | 0.0 | 0.00 | 0.00 | 0.00 | 72 | 1008.4 |
| 20260504041614 | 6 | 153 | 0.0 | 0.0 | 0.00 | 0.00 | 0.00 | 73 | 1008.5 |
| 20260504040602 | 6 | 153 | 0.0 | 0.0 | 0.00 | 0.00 | 0.00 | 72 | 1008.4 |
| 20260504040057 | 6 | 153 | 0.0 | 0.0 | 0.00 | 0.00 | 0.00 | 71 | 1008.5 |
| 20260504035549 | 6 | 153 | 0.0 | 0.0 | 0.00 | 0.00 | 0.00 | 71 | 1008.4 |
| 20260504035043 | 6 | 153 | 0.0 | 0.0 | 0.00 | 0.00 | 0.00 | 72 | 1008.4 |
| 20260504034537 | 6 | 153 | 0.0 | 0.0 | 0.00 | 0.00 | 0.00 | 72 | 1008.3 |
| 20260504034258 | 5 | 153 | 0.0 | 0.0 | 0.00 | 0.00 | 0.00 | 72 | 1008.2 |
| 20260504033526 | 5 | 153 | 0.0 | 0.0 | 0.00 | 0.00 | 0.00 | 73 | 1008.3 |
| 20260504033019 | 5 | 153 | 0.0 | 0.0 | 0.00 | 0.00 | 0.00 | 73 | 1008.3 |
| 20260504032738 | 6 | 153 | 0.0 | 0.0 | 0.00 | 0.00 | 0.00 | 74 | 1008.1 |
| 20260504032007 | 6 | 153 | 0.0 | 0.0 | 0.00 | 0.00 | 0.00 | 75 | 1008.2 |
| 20260504031502 | 6 | 153 | 0.0 | 0.0 | 0.00 | 0.00 | 0.00 | 74 | 1008.1 |
| 20260504030956 | 6 | 219 | 0.0 | 0.0 | 0.00 | 0.00 | 0.00 | 74 | 1008.0 |
| 20260504030449 | 6 | 219 | 0.0 | 0.0 | 0.00 | 0.00 | 0.00 | 75 | 1008.0 |
| 20260504025943 | 6 | 219 | 0.0 | 0.0 | 0.00 | 0.00 | 0.00 | 75 | 1008.0 |
| 20260504025437 | 6 | 219 | 0.0 | 1.6 | 0.00 | 0.00 | 0.00 | 77 | 1008.0 |
| 20260504024931 | 6 | 219 | 0.0 | 3.2 | 0.00 | 0.00 | 0.00 | 77 | 1008.0 |
| 20260504024427 | 6 | 219 | 0.0 | 3.2 | 0.00 | 0.00 | 0.00 | 77 | 1007.9 |
| 20260504023924 | 6 | 202 | 0.0 | 0.0 | 0.00 | 0.00 | 0.00 | 77 | 1007.9 |
| 20260504023641 | 6 | 201 | 0.0 | 0.0 | 0.00 | 0.00 | 0.00 | 76 | 1007.9 |
| 20260504022924 | 6 | 202 | 0.0 | 0.0 | 0.00 | 0.00 | 0.00 | 75 | 1007.9 |
| 20260504022421 | 6 | 202 | 0.0 | 0.0 | 0.00 | 0.00 | 0.00 | 75 | 1007.9 |
| 20260504022144 | 6 | 202 | 0.0 | 0.0 | 0.00 | 0.00 | 0.00 | 75 | 1007.9 |
| 20260504021419 | 6 | 202 | 0.0 | 0.0 | 0.00 | 0.00 | 0.00 | 76 | 1007.9 |
| 20260504020917 | 6 | 202 | 0.0 | 0.0 | 0.00 | 0.00 | 0.00 | 74 | 1007.9 |
| 20260504020415 | 6 | 202 | 0.0 | 0.0 | 0.00 | 0.00 | 0.00 | 74 | 1007.8 |
| 20260504015914 | 6 | 202 | 0.0 | 0.0 | 0.00 | 0.00 | 0.00 | 73 | 1007.8 |
| 20260504015411 | 6 | 202 | 0.0 | 0.0 | 0.00 | 0.00 | 0.00 | 73 | 1007.7 |
| 20260504014911 | 6 | 202 | 0.0 | 0.0 | 0.00 | 0.00 | 0.00 | 72 | 1007.7 |
| 20260504014414 | 6 | 202 | 0.0 | 0.0 | 0.00 | 0.00 | 0.00 | 70 | 1007.7 |
| 20260504013909 | 6 | 202 | 0.0 | 0.0 | 0.00 | 0.00 | 0.00 | 69 | 1007.7 |
| 20260504013407 | 6 | 202 | 0.0 | 0.0 | 0.00 | 0.00 | 0.00 | 69 | 1007.7 |
| 20260504012906 | 7 | 202 | 0.0 | 0.0 | 0.00 | 0.00 | 0.00 | 68 | 1007.7 |
| 20260504012628 | 7 | 202 | 0.0 | 0.0 | 0.00 | 0.00 | 0.00 | 67 | 1007.6 |
| 20260504012125 | 7 | 202 | 0.0 | 0.0 | 0.00 | 0.00 | 0.00 | 66 | 1007.6 |
| 20260504011400 | 7 | 202 | 0.0 | 0.0 | 0.00 | 0.00 | 0.00 | 66 | 1007.5 |
| 20260504010858 | 7 | 202 | 0.0 | 0.0 | 0.00 | 0.00 | 0.00 | 65 | 1007.5 |
| 20260504010355 | 8 | 202 | 0.0 | 0.0 | 0.00 | 0.00 | 0.00 | 64 | 1007.5 |
| 20260504005854 | 8 | 202 | 0.0 | 0.0 | 0.00 | 0.00 | 0.00 | 60 | 1007.5 |
| 20260504004844 | 8 | 202 | 0.0 | 0.0 | 0.00 | 0.00 | 0.00 | 58 | 1007.5 |
| 20260504004336 | 9 | 202 | 0.0 | 0.0 | 0.00 | 0.00 | 0.00 | 57 | 1007.4 |
| 20260504003831 | 9 | 202 | 0.0 | 0.0 | 0.00 | 0.00 | 0.00 | 56 | 1007.4 |
| 20260504003324 | 10 | 202 | 0.0 | 0.0 | 0.00 | 0.00 | 0.00 | 54 | 1007.3 |
| 20260504002819 | 10 | 202 | 0.0 | 0.0 | 0.00 | 0.00 | 0.00 | 53 | 1007.2 |
| 20260504002314 | 10 | 202 | 0.0 | 0.0 | 0.00 | 0.00 | 0.00 | 51 | 1007.1 |
| 20260504002036 | 11 | 202 | 0.0 | 0.0 | 0.00 | 0.00 | 0.00 | 50 | 1007.1 |
| 20260504001302 | 11 | 202 | 0.0 | 0.0 | 0.00 | 0.00 | 0.00 | 49 | 1007.0 |
| 20260504000754 | 11 | 202 | 0.0 | 0.0 | 0.00 | 0.00 | 0.00 | 47 | 1007.0 |
| 20260504000520 | 12 | 202 | 0.0 | 0.0 | 0.00 | 0.00 | 0.00 | 45 | 1006.9 |
| 20260503235743 | 12 | 202 | 0.0 | 0.0 | 0.00 | 0.00 | 0.00 | 43 | 1006.9 |
| 20260503235236 | 13 | 202 | 0.0 | 0.0 | 0.00 | 0.00 | 0.00 | 42 | 1006.9 |
| 20260503234730 | 13 | 138 | 0.0 | 0.0 | 0.00 | 0.00 | 0.00 | 40 | 1006.8 |
| 20260503234225 | 14 | 138 | 0.0 | 1.6 | 0.00 | 0.00 | 0.00 | 39 | 1006.8 |
| 20260503233719 | 14 | 138 | 0.0 | 1.6 | 0.00 | 0.00 | 0.00 | 37 | 1006.8 |
| 20260503233214 | 15 | 138 | 0.0 | 1.6 | 0.00 | 0.00 | 0.00 | 36 | 1006.7 |
| 20260503232706 | 15 | 202 | 0.0 | 4.8 | 0.00 | 0.00 | 0.00 | 35 | 1006.7 |
| 20260503232201 | 15 | 157 | 0.0 | 4.8 | 0.00 | 0.00 | 0.00 | 33 | 1006.7 |
| 20260503231655 | 16 | 148 | 0.0 | 4.8 | 0.00 | 0.00 | 0.00 | 33 | 1006.6 |
| 20260503231149 | 16 | 243 | 0.0 | 4.8 | 0.00 | 0.00 | 0.00 | 32 | 1006.6 |
| 20260503230644 | 16 | 146 | 0.0 | 6.4 | 0.00 | 0.00 | 0.00 | 33 | 1006.6 |
| 20260503230136 | 17 | 181 | 1.6 | 11.3 | 0.00 | 0.00 | 0.00 | 33 | 1006.7 |
| 20260503225631 | 17 | 219 | 1.6 | 11.3 | 0.00 | 0.00 | 0.00 | 33 | 1006.7 |
| 20260503225125 | 17 | 113 | 0.0 | 4.8 | 0.00 | 0.00 | 0.00 | 33 | 1006.7 |
| 20260503224619 | 17 | 63 | 0.0 | 4.8 | 0.00 | 0.00 | 0.00 | 32 | 1006.7 |
| 20260503224119 | 17 | 262 | 1.6 | 8.0 | 0.00 | 0.00 | 0.00 | 33 | 1006.7 |
| 20260503223619 | 17 | 63 | 3.2 | 12.9 | 0.00 | 0.00 | 0.00 | 32 | 1006.8 |
| 20260503223119 | 17 | 86 | 1.6 | 12.9 | 0.00 | 0.00 | 0.00 | 30 | 1006.7 |
| 20260503222841 | 17 | 262 | 1.6 | 9.7 | 0.00 | 0.00 | 0.00 | 33 | 1006.7 |
| 20260503222115 | 17 | 252 | 3.2 | 14.5 | 0.00 | 0.00 | 0.00 | 31 | 1006.7 |
| 20260503221836 | 17 | 247 | 4.8 | 14.5 | 0.00 | 0.00 | 0.00 | 30 | 1006.7 |
| 20260503221114 | 17 | 221 | 1.6 | 12.9 | 0.00 | 0.00 | 0.00 | 31 | 1006.7 |
| 20260503220614 | 17 | 264 | 1.6 | 12.9 | 0.00 | 0.00 | 0.00 | 32 | 1006.7 |
| 20260503220114 | 17 | 216 | 3.2 | 12.9 | 0.00 | 0.00 | 0.00 | 31 | 1006.8 |
| 20260503215836 | 17 | 118 | 3.2 | 19.3 | 0.00 | 0.00 | 0.00 | 30 | 1006.7 |
| 20260503215111 | 17 | 256 | 3.2 | 19.3 | 0.00 | 0.00 | 0.00 | 30 | 1006.7 |
| 20260503214611 | 17 | 198 | 3.2 | 16.1 | 0.00 | 0.00 | 0.00 | 32 | 1006.8 |
| 20260503214330 | 17 | 238 | 3.2 | 9.7 | 0.00 | 0.00 | 0.00 | 32 | 1006.8 |
| 20260503213609 | 17 | 282 | 3.2 | 16.1 | 0.00 | 0.00 | 0.00 | 31 | 1006.7 |
| 20260503213107 | 17 | 353 | 3.2 | 16.1 | 0.00 | 0.00 | 0.00 | 31 | 1006.7 |
| 20260503212605 | 17 | 215 | 3.2 | 9.7 | 0.00 | 0.00 | 0.00 | 31 | 1006.7 |
| 20260503212105 | 17 | 166 | 3.2 | 12.9 | 0.00 | 0.00 | 0.00 | 34 | 1006.7 |
| 20260503211607 | 17 | 32 | 3.2 | 16.1 | 0.00 | 0.00 | 0.00 | 31 | 1006.6 |
| 20260503211326 | 17 | 300 | 3.2 | 16.1 | 0.00 | 0.00 | 0.00 | 32 | 1006.7 |
| 20260503210559 | 17 | 163 | 3.2 | 16.1 | 0.00 | 0.00 | 0.00 | 32 | 1006.7 |
| 20260503210053 | 17 | 125 | 4.8 | 16.1 | 0.00 | 0.00 | 0.00 | 30 | 1006.7 |
| 20260503205547 | 17 | 19 | 4.8 | 16.1 | 0.00 | 0.00 | 0.00 | 32 | 1006.7 |
| 20260503205306 | 17 | 170 | 3.2 | 12.9 | 0.00 | 0.00 | 0.00 | 32 | 1006.8 |
| 20260503204536 | 17 | 219 | 3.2 | 12.9 | 0.00 | 0.00 | 0.00 | 32 | 1006.8 |
| 20260503204029 | 17 | 93 | 3.2 | 11.3 | 0.00 | 0.00 | 0.00 | 34 | 1006.8 |
| 20260503203523 | 17 | 168 | 3.2 | 12.9 | 0.00 | 0.00 | 0.00 | 34 | 1007.0 |
| 20260503203017 | 17 | 219 | 1.6 | 12.9 | 0.00 | 0.00 | 0.00 | 36 | 1006.9 |
| 20260503202511 | 17 | 131 | 1.6 | 12.9 | 0.00 | 0.00 | 0.00 | 36 | 1007.0 |
| 20260503202006 | 17 | 172 | 3.2 | 12.9 | 0.00 | 0.00 | 0.00 | 35 | 1007.0 |
| 20260503201500 | 16 | 288 | 3.2 | 14.5 | 0.00 | 0.00 | 0.00 | 37 | 1007.2 |
| 20260503200954 | 16 | 21 | 4.8 | 14.5 | 0.00 | 0.00 | 0.00 | 36 | 1007.2 |
| 20260503200448 | 17 | 51 | 4.8 | 17.7 | 0.00 | 0.00 | 0.00 | 39 | 1007.3 |
| 20260503195941 | 17 | 94 | 4.8 | 17.7 | 0.00 | 0.00 | 0.00 | 37 | 1007.5 |
| 20260503195437 | 17 | 67 | 3.2 | 16.1 | 0.00 | 0.00 | 0.00 | 34 | 1007.5 |
| 20260503194928 | 16 | 342 | 3.2 | 16.1 | 0.00 | 0.00 | 0.00 | 38 | 1007.5 |
| 20260503194423 | 16 | 81 | 3.2 | 11.3 | 0.00 | 0.00 | 0.00 | 41 | 1007.7 |
| 20260503194148 | 16 | 45 | 4.8 | 12.9 | 0.00 | 0.00 | 0.00 | 37 | 1007.5 |
| 20260503193411 | 16 | 239 | 3.2 | 12.9 | 0.00 | 0.00 | 0.00 | 37 | 1007.6 |
| 20260503193130 | 16 | 316 | 4.8 | 16.1 | 0.00 | 0.00 | 0.00 | 38 | 1007.7 |
| 20260503192624 | 16 | 50 | 4.8 | 16.1 | 0.00 | 0.00 | 0.00 | 36 | 1007.8 |
| 20260503192114 | 16 | 228 | 3.2 | 14.5 | 0.00 | 0.00 | 0.00 | 36 | 1007.8 |
| 20260503191347 | 16 | 51 | 1.6 | 8.0 | 0.00 | 0.00 | 0.00 | 37 | 1007.9 |
| 20260503190841 | 16 | 155 | 3.2 | 20.9 | 0.00 | 0.00 | 0.00 | 37 | 1007.9 |
| 20260503190336 | 16 | 95 | 4.8 | 20.9 | 0.00 | 0.00 | 0.00 | 37 | 1008.0 |
| 20260503185829 | 15 | 101 | 4.8 | 20.9 | 0.00 | 0.00 | 0.00 | 39 | 1008.1 |
| 20260503185323 | 15 | 201 | 4.8 | 20.9 | 0.00 | 0.00 | 0.00 | 35 | 1008.0 |
| 20260503184817 | 15 | 58 | 4.8 | 20.9 | 0.00 | 0.00 | 0.00 | 37 | 1008.2 |
| 20260503184311 | 15 | 270 | 4.8 | 14.5 | 0.00 | 0.00 | 0.00 | 40 | 1008.2 |
| 20260503183807 | 15 | 282 | 4.8 | 16.1 | 0.00 | 0.00 | 0.00 | 38 | 1008.4 |
| 20260503183259 | 15 | 64 | 4.8 | 16.1 | 0.00 | 0.00 | 0.00 | 39 | 1008.4 |
| 20260503182753 | 15 | 162 | 3.2 | 12.9 | 0.00 | 0.00 | 0.00 | 37 | 1008.4 |
| 20260503182246 | 15 | 345 | 4.8 | 17.7 | 0.00 | 0.00 | 0.00 | 40 | 1008.4 |
| 20260503181741 | 15 | 152 | 4.8 | 17.7 | 0.00 | 0.00 | 0.00 | 40 | 1008.5 |
| 20260503181236 | 15 | 293 | 3.2 | 16.1 | 0.00 | 0.00 | 0.00 | 44 | 1008.4 |
| 20260503180730 | 15 | 62 | 3.2 | 16.1 | 0.00 | 0.00 | 0.00 | 37 | 1008.4 |
| 20260503180231 | 15 | 99 | 3.2 | 17.7 | 0.00 | 0.00 | 0.00 | 40 | 1008.4 |
| 20260503175729 | 14 | 135 | 6.4 | 24.1 | 0.00 | 0.00 | 0.00 | 37 | 1008.4 |
| 20260503175229 | 14 | 203 | 4.8 | 24.1 | 0.00 | 0.00 | 0.00 | 40 | 1008.5 |
| 20260503174229 | 15 | 49 | 3.2 | 11.3 | 0.00 | 0.00 | 0.00 | 41 | 1008.6 |
| 20260503173728 | 14 | 25 | 3.2 | 12.9 | 0.00 | 0.00 | 0.00 | 44 | 1008.6 |
| 20260503172728 | 14 | 117 | 3.2 | 19.3 | 0.00 | 0.00 | 0.00 | 39 | 1008.4 |
| 20260503172229 | 14 | 257 | 4.8 | 17.7 | 0.00 | 0.00 | 0.00 | 43 | 1008.5 |
| 20260503171730 | 13 | 206 | 4.8 | 20.9 | 0.00 | 0.00 | 0.00 | 41 | 1008.6 |
| 20260503171227 | 13 | 207 | 4.8 | 20.9 | 0.00 | 0.00 | 0.00 | 44 | 1008.7 |
| 20260503170727 | 13 | 84 | 4.8 | 17.7 | 0.00 | 0.00 | 0.00 | 39 | 1008.8 |
| 20260503170446 | 13 | 323 | 1.6 | 12.9 | 0.00 | 0.00 | 0.00 | 42 | 1008.7 |
| 20260503150718 | 11 | 219 | 3.2 | 17.7 | 0.00 | 0.00 | 0.00 | 44 | 1009.2 |
| 20260503150220 | 11 | 162 | 3.2 | 16.1 | 0.00 | 0.00 | 0.00 | 47 | 1009.4 |
| 20260503140214 | 10 | 354 | 3.2 | 14.5 | 0.00 | 0.00 | 0.00 | 51 | 1009.5 |
| 20260503131156 | 8 | 115 | 3.2 | 11.3 | 0.00 | 0.00 | 0.00 | 57 | 1009.6 |
| 20260503130651 | 8 | 58 | 3.2 | 11.3 | 0.00 | 0.00 | 0.00 | 60 | 1009.6 |
| 20260503130144 | 8 | 241 | 3.2 | 12.9 | 0.00 | 0.00 | 0.00 | 59 | 1009.5 |